Location: Old Broadwell Mill Observatory
(33.8015°N, 85.8137°W)
Time: 03:38:45
(UTC-05:00)

Daily predictions for brighter satellites

Satellite Brightness Start Highest point End
(mag) Time Altitude Azimuth Time Altitude Azimuth Time Altitude Azimuth
Terra 4.3 00:05:35 13° W 00:05:35 13° W 00:07:06 10° WNW
CZ-2C R/B 4.4 00:06:27 10° NE 00:08:48 22° ENE 00:08:48 22° ENE
Cosmos 2341 Rocket 4.5 00:25:29 54° NE 00:25:29 54° NE 00:30:47 10° NNE
ATLAS 3B R/B 3.6 00:27:40 10° NW 00:32:30 36° W 00:32:30 36° W
Cosmos 1603 4.4 00:29:44 10° NNW 00:33:53 50° NNW 00:33:53 50° NNW
USA 238 DEB 3.8 00:39:36 10° NNW 00:45:45 68° WNW 00:45:45 68° WNW
USA 238 3.8 00:39:42 10° NNW 00:45:52 69° WNW 00:45:52 69° WNW
CZ-2C R/B 3.8 01:12:41 56° NNE 01:12:41 56° NNE 01:17:21 10° N
NOSS 3-2 (C) 4.2 01:12:51 10° NNW 01:20:27 65° ENE 01:22:14 52° ESE
Cosmos 1844 Rocket 4.4 01:24:56 22° E 01:24:56 22° E 01:28:14 10° NE
Cosmos 1727 Rocket 4.4 01:19:58 10° N 01:25:47 53° ENE 01:25:47 53° ENE
Cosmos 2263 Rocket 2.9 01:27:59 50° NNW 01:27:59 50° NNW 01:32:34 10° NNE
NOSS 3-4 (A) 4.4 01:38:08 39° WNW 01:38:46 40° NW 01:44:53 10° NNE
NOSS 3-4 (C) 4.3 01:38:15 40° WNW 01:38:51 40° NW 01:44:59 10° NNE
NOSS 3-2 (A) 3.8 01:35:05 10° NNW 01:42:46 79° WSW 01:43:00 78° SW
CZ-4C R/B 3.1 01:40:24 10° NW 01:46:52 58° W 01:46:52 58° W
Cosmos 2278 Rocket 4.1 01:50:51 19° E 01:50:51 19° E 01:54:37 10° ENE
CZ-2C R/B 4.2 01:46:51 10° NNW 01:50:19 25° NW 01:50:19 25° NW
COSMOS 2406 4.0 01:52:06 10° N 01:57:37 45° ENE 01:58:32 41° E
Meteor 1-25 Rocket 4.3 02:04:44 73° NE 02:04:44 73° NE 02:10:03 10° N
Cosmos 2056 Rocket 4.3 02:08:09 44° NW 02:08:09 44° NW 02:12:21 10° N
Cosmos 407 Rocket 3.8 02:09:25 10° N 02:14:14 61° NE 02:14:14 61° NE
SL-08 R/B 4.0 02:23:18 51° E 02:23:31 51° ENE 02:28:17 10° N
Cosmos 1821 Rocket 4.1 02:23:32 60° SE 02:24:25 68° E 02:30:46 10° NNE
Cosmos 676 Rocket 4.4 02:19:52 10° N 02:24:58 57° ENE 02:25:17 56° E
NOSS 2-2 (E) 4.4 02:27:12 46° NE 02:27:12 46° NE 02:30:34 10° NE
GP-B 3.8 02:23:22 10° N 02:26:58 51° NE 02:26:58 51° NE
Cosmos 1809 Rocket 4.4 02:29:58 70° SE 02:30:36 77° E 02:36:45 10° N
NPP 3.5 02:26:48 10° NNE 02:32:08 88° NNE 02:32:08 88° NNE
Iridium 4 Rocket 4.4 02:36:42 10° NNW 02:40:12 36° WNW 02:40:12 36° WNW
AQUA 3.9 02:36:49 10° NNE 02:41:12 75° N 02:41:12 75° N
Meteor 2-21 4.2 02:41:19 72° SSW 02:41:59 86° W 02:48:07 10° N
ERS-2 3.4 02:42:51 10° N 02:45:16 38° N 02:45:16 38° N
USA 234 3.7 02:40:59 10° ESE 02:47:22 60° NE 02:53:46 10° NW
CZ-2D R/B 3.7 02:43:28 10° NE 02:48:10 29° E 02:50:19 22° SE
Cosmos 1536 3.6 02:50:58 49° ENE 02:50:58 49° ENE 02:54:34 10° NNE
Cosmos 1954 Rocket 4.0 02:45:30 10° NNW 02:50:41 77° ENE 02:51:24 65° SE
CBERS 1 LM4 rocket 4.2 02:49:43 10° NNE 02:54:35 89° WNW 02:54:39 88° SW
CENTAUR R/B 3.2 02:51:09 10° NNW 02:59:09 78° ENE 03:07:29 10° SE
USA 161 3.8 03:01:36 25° NNE 03:01:36 25° NNE 03:03:12 10° N
Gbstr 26 Del rocket 4.5 03:00:16 25° NW 03:00:30 25° NW 03:03:42 10° NNE
IRS-1C 4.1 03:00:46 10° N 03:06:02 64° WNW 03:06:44 58° WSW
Cosmos 1844 Rocket 3.4 03:06:36 37° W 03:07:23 38° WNW 03:12:41 10° N
OAO 3 Copernicus 4.1 03:12:05 69° WSW 03:12:41 83° SSE 03:17:43 10° E
Cosmos 1892 Rocket 4.3 03:09:26 10° N 03:13:38 49° E 03:15:12 33° SE
ARIANE 5 R/B 2.4 03:11:47 10° NNE 03:16:48 78° ESE 03:18:07 50° S
Meteor 1-11 Rocket 4.0 03:15:58 48° SW 03:17:15 59° W 03:23:09 10° N
Cosmos 1023 Rocket 4.3 03:12:10 10° NNW 03:17:16 89° ENE 03:19:05 41° SSE
Cosmos 1461 3.6 03:19:20 45° WNW 03:19:51 47° WNW 03:24:20 10° NNE
Cosmos 1356 3.6 03:20:41 70° N 03:20:41 70° N 03:23:51 10° N
Cosmos 1844 4.4 03:20:36 35° W 03:21:50 40° WNW 03:27:13 10° N
Cosmos 1420 Rocket 4.4 03:21:23 43° W 03:22:16 48° WNW 03:27:24 10° N
Meteor 1-13 Rocket 4.4 03:19:37 10° NNW 03:25:10 53° W 03:26:30 44° SW
Resurs 1-4 Rocket 2.3 03:20:27 10° NNE 03:25:44 69° ESE 03:27:59 35° S
BREEZE-M DEB (TANK) 3.6 03:28:55 42° SSW 03:30:17 59° SE 03:33:45 10° ENE
Cosmos 1400 Rocket 2.7 03:30:49 64° W 03:30:54 64° W 03:34:49 10° N
Yuri Rocket 3.9 03:29:43 41° SW 03:31:03 48° S 03:35:57 10° ESE
ATLAS 5 CENTAUR R/B 3.1 03:26:40 10° NNW 03:32:40 56° ENE 03:38:59 10° SE
Cosmos 1633 3.2 03:34:35 41° WNW 03:34:35 41° WNW 03:37:39 10° N
Cosmos 2278 Rocket 2.6 03:32:42 37° WSW 03:34:22 47° WNW 03:39:51 10° N
Cosmos 2297 3.7 03:33:17 38° SSW 03:35:35 85° ESE 03:41:18 10° NNE
ADEOS 4.3 03:31:56 10° N 03:36:43 37° WNW 03:37:58 33° WSW
UNK 3.8 03:35:16 23° SSE 03:38:08 77° ENE 03:42:47 10° N
Cosmos 1140 Rocket 3.5 03:33:36 10° NNW 03:38:37 55° WSW 03:40:11 39° SSW
Meteor 1-23 Rocket 4.1 03:33:18 10° N 03:39:00 85° W 03:42:39 23° S
COSMOS 2487 2.9 03:36:06 10° NNW 03:39:08 48° WNW 03:39:08 48° WNW
Cosmos 1447 Rocket 4.4 03:35:05 10° N 03:41:16 89° E 03:46:07 17° S
Meteor 1-5 Rocket 4.2 03:44:52 29° SSW 03:48:00 79° W 03:53:47 10° N
Timation 2 Rocket 3.9 03:44:18 10° NNW 03:50:25 84° ENE 03:56:23 10° SSE
Cosmos 2061 Rocket 4.1 03:49:14 18° S 03:54:07 81° E 04:00:32 10° N
Okean O Rocket 2.3 03:51:09 10° NNE 03:55:23 51° E 03:58:35 17° S
Cosmos 1025 Rocket 4.0 03:53:07 10° NNW 03:56:48 28° W 03:57:06 28° W
Cosmos 2082 Rocket 3.1 03:51:31 10° N 03:57:06 51° ENE 04:02:37 10° SE
CZ-4B R/B 4.1 03:52:06 10° NNE 03:57:34 47° E 04:02:57 10° S
Cosmos 1455 Rocket 3.4 03:56:19 35° SW 03:57:48 49° W 04:02:08 10° N
MOS 1-B 4.4 03:52:47 10° N 03:58:34 70° WNW 04:02:11 24° SSW
Cosmos 1850 Rocket 4.3 03:53:54 10° NNW 03:58:55 47° WSW 04:01:58 22° SSW
Cosmos 1315 Rocket 3.1 03:58:51 36° SW 04:00:04 49° W 04:04:00 10° N
USA 129 3.8 04:00:01 18° ESE 04:00:59 27° ENE 04:02:49 10° NNE
Cosmos 1626 Rocket 4.1 03:57:07 10° N 04:01:26 60° E 04:05:47 10° SSE
Cosmos 1741 Rocket 4.3 03:56:58 10° NNW 04:01:58 45° WSW 04:05:06 21° SSW
Meteor 2-4 Rocket 4.1 04:04:07 10° NNW 04:09:04 39° W 04:11:57 22° SSW
SL-16 R/B 2.7 04:04:21 14° S 04:09:30 51° W 04:15:33 10° NNW
Cosmos 1346 Rocket 4.2 04:07:00 10° N 04:10:49 39° ENE 04:14:35 10° SSE
Cosmos 1500 4.1 04:09:22 10° SSE 04:13:05 48° E 04:16:51 10° NNE
Meteor 1-12 Rocket 4.3 04:08:43 16° SSW 04:13:30 79° W 04:19:18 10° N
Cosmos 1302 Rocket 4.2 04:09:49 16° S 04:14:02 73° ESE 04:19:15 10° NNE
CZ-4B R/B 3.7 04:11:51 10° NNE 04:16:19 55° E 04:20:36 10° S
Cosmos 1975 2.7 04:15:05 20° SSW 04:17:43 72° W 04:21:43 10° N
SME Rocket 3.4 04:16:33 23° SSW 04:18:21 37° W 04:22:01 10° NNW
Cosmos 2016 Rocket 4.0 04:13:12 10° S 04:19:32 87° W 04:25:50 10° N
APEX 4.1 04:24:30 19° W 04:25:27 22° WNW 04:28:02 10° N
UNKNOWN OBJECT B 3.9 04:23:43 10° N 04:27:19 30° WNW 04:29:31 18° WSW
Skynet4D Del rocket 4.3 04:24:32 18° WSW 04:27:36 32° SSW 04:32:28 10° SE
CZ-2D R/B 3.2 04:23:25 10° N 04:28:08 31° WNW 04:31:38 16° WSW
USA 234 3.9 04:24:50 10° S 04:30:29 31° SW 04:36:11 10° WNW
CZ-2C R/B 3.7 04:26:22 10° S 04:31:05 76° WSW 04:35:51 10° NNW
ASC 2 Rocket 4.3 04:29:55 17° SW 04:31:53 23° S 04:35:11 10° SE
Cosmos 1725 Rocket 4.1 04:28:34 10° S 04:34:51 81° E 04:41:07 10° N
Cosmos 1833 Rocket 2.7 04:31:22 10° NNW 04:37:00 89° ENE 04:42:36 10° SSE
BREEZE-M DEB 3.5 04:36:07 23° SW 04:37:24 88° NW 04:40:20 10° NE
PSLV R/B 4.4 04:36:17 10° N 04:40:12 42° WNW 04:43:39 12° SW
PSLV R/B 3.3 04:39:08 16° WSW 04:41:47 77° NNW 04:45:08 10° ENE
CENTAUR R/B 4.2 04:43:38 10° WNW 04:49:14 21° WSW 04:54:56 10° SSW
Cosmos 2285 Rocket 4.1 04:43:07 10° SSW 04:49:20 68° WNW 04:55:39 10° NNE
Cosmos 1174 3.6 04:46:21 10° NW 04:49:28 39° WSW 04:52:17 10° S
Cosmos 2098 Rocket 2.6 04:48:06 10° S 04:51:27 89° W 04:55:39 10° N
Cosmos 1486 Rocket 4.0 04:46:43 10° NNW 04:52:02 76° WSW 04:57:21 10° S
BREEZE-M DEB (TANK) 3.4 04:45:28 10° SW 04:53:47 74° SE 04:56:40 10° NE
Atlas Centaur 2 3.9 04:46:36 10° SW 04:54:15 37° SSE 05:01:37 10° E
ADEOS Rocket 4.0 04:50:08 10° NNE 04:55:27 44° E 05:01:06 10° S
Delta R/B 4.0 04:55:43 10° SSW 04:57:04 17° SSE 04:59:39 10° ESE
OAO 3 Copernicus 4.5 04:52:17 10° W 04:57:19 77° N 05:02:22 10° E
Cosmos 2369 Rocket 2.8 04:58:59 10° S 05:04:34 59° ESE 05:10:09 10° NNE
Resurs 1-4 Rocket 4.1 05:02:40 10° NW 05:04:55 13° WNW 05:07:09 10° W
